When you browse on this site, cookies collect data to enhance your experience and personalize the content and advertising you see.
Visit our Privacy Policy to learn more. By continuing to use the site, you agree to this use of cookies and data.
  • In Hungary
  • List of Countries
  • For 7 days
  • Water Temperature
  • Weather Map
  • News
  • Weather Widgets
  • user-avatar
    Login

    Hourly Weather Tredube

    Today, 19 September, Thursday

    Time Temperature Precipitation Wind Pressure Humidity
    00:00 +4°C° 0 mm 3 mps 738 mmHg 97%
    01:00 +4°C° 0 mm 3 mps 738 mmHg 97%
    02:00 +4°C° 0 mm 3 mps 739 mmHg 97%
    03:00 +4°C° 0 mm 3 mps 739 mmHg 96%
    04:00 +4°C° 0 mm 3 mps 740 mmHg 94%
    05:00 +4°C° 0 mm 3 mps 740 mmHg 93%
    06:00 +5°C° 0 mm 3 mps 741 mmHg 90%
    07:00 +5°C° 0 mm 3 mps 741 mmHg 87%
    08:00 +5°C° 0 mm 3 mps 742 mmHg 84%
    09:00 +7°C° 0.1 mm 3 mps 742 mmHg 80%
    10:00 +7°C° 0.1 mm 3 mps 743 mmHg 76%
    11:00 +8°C° 0.1 mm 3 mps 743 mmHg 71%
    12:00 +8°C° 0.1 mm 3 mps 743 mmHg 71%
    13:00 +8°C° 0.1 mm 3 mps 744 mmHg 71%
    14:00 +8°C° 0.1 mm 3 mps 744 mmHg 71%
    15:00 +8°C° 0.1 mm 2 mps 744 mmHg 73%
    16:00 +8°C° 0.1 mm 2 mps 744 mmHg 76%
    17:00 +7°C° 0.1 mm 2 mps 745 mmHg 79%
    18:00 +7°C° 0 mm 1 mps 745 mmHg 81%
    19:00 +6°C° 0 mm 1 mps 745 mmHg 84%
    20:00 +5°C° 0 mm 1 mps 745 mmHg 87%
    21:00 +5°C° 0 mm 1 mps 745 mmHg 88%
    22:00 +5°C° 0 mm 1 mps 745 mmHg 89%
    23:00 +4°C° 0 mm 1 mps 745 mmHg 90%

    Tomorrow, 20 September, Friday

    Time Temperature Precipitation Wind Pressure Humidity
    00:00 +4°C° 0 mm 1 mps 746 mmHg 90%
    01:00 +4°C° 0 mm 1 mps 746 mmHg 91%
    02:00 +4°C° 0 mm 1 mps 746 mmHg 91%
    03:00 +4°C° 0 mm 1 mps 746 mmHg 92%
    04:00 +3°C° 0 mm 1 mps 746 mmHg 93%
    05:00 +3°C° 0 mm 1 mps 746 mmHg 94%
    06:00 +4°C° 0 mm 1 mps 746 mmHg 89%
    07:00 +5°C° 0 mm 1 mps 746 mmHg 84%
    08:00 +6°C° 0 mm 1 mps 746 mmHg 80%
    09:00 +8°C° 0 mm 1 mps 746 mmHg 72%
    10:00 +9°C° 0 mm 1 mps 746 mmHg 65%
    11:00 +10°C° 0 mm 1 mps 746 mmHg 57%
    12:00 +9°C° 0.2 mm 2 mps 746 mmHg 58%
    13:00 +9°C° 0.2 mm 2 mps 746 mmHg 59%
    14:00 +9°C° 0.2 mm 2 mps 746 mmHg 60%
    15:00 +8°C° 0.2 mm 2 mps 746 mmHg 66%
    16:00 +7°C° 0.2 mm 2 mps 746 mmHg 73%
    17:00 +8°C° 0.2 mm 1 mps 746 mmHg 79%
    18:00 +7°C° 0 mm 1 mps 746 mmHg 84%
    19:00 +5°C° 0 mm 2 mps 746 mmHg 89%
    20:00 +4°C° 0 mm 2 mps 747 mmHg 93%
    21:00 +3°C° 0 mm 2 mps 747 mmHg 94%
    22:00 +2°C° 0 mm 2 mps 747 mmHg 96%
    23:00 +2°C° 0 mm 2 mps 747 mmHg 97%

    Day after tomorrow, 21 September, Saturday

    Time Temperature Precipitation Wind Pressure Humidity
    00:00 +1°C° 0 mm 2 mps 747 mmHg 97%
    01:00 +1°C° 0 mm 2 mps 747 mmHg 97%
    02:00 +1°C° 0 mm 2 mps 747 mmHg 96%
    03:00 -1°C° 0 mm 2 mps 747 mmHg 96%
    04:00 -1°C° 0 mm 2 mps 746 mmHg 95%
    05:00 -1°C° 0 mm 2 mps 746 mmHg 95%
    06:00 +1°C° 0 mm 2 mps 746 mmHg 90%
    07:00 +2°C° 0 mm 2 mps 746 mmHg 85%
    08:00 +4°C° 0 mm 2 mps 746 mmHg 81%
    09:00 +4°C° 0 mm 3 mps 746 mmHg 75%
    10:00 +5°C° 0 mm 3 mps 745 mmHg 70%
    11:00 +6°C° 0 mm 4 mps 745 mmHg 64%
    12:00 +6°C° 0 mm 4 mps 744 mmHg 65%
    13:00 +6°C° 0 mm 4 mps 744 mmHg 66%
    14:00 +7°C° 0 mm 5 mps 743 mmHg 67%
    15:00 +6°C° 0.2 mm 4 mps 742 mmHg 75%
    16:00 +5°C° 0.2 mm 4 mps 741 mmHg 84%
    17:00 +4°C° 0.2 mm 4 mps 740 mmHg 93%
    18:00 +4°C° 0.3 mm 4 mps 739 mmHg 93%
    19:00 +4°C° 0.3 mm 4 mps 738 mmHg 94%
    20:00 +4°C° 0.3 mm 4 mps 737 mmHg 95%
    21:00 +5°C° 0.2 mm 3 mps 736 mmHg 96%
    22:00 +5°C° 0.2 mm 3 mps 735 mmHg 96%
    23:00 +7°C° 0.2 mm 3 mps 734 mmHg 96%

    22 September, Sunday

    Time Temperature Precipitation Wind Pressure Humidity
    00:00 +7°C° 0.2 mm 3 mps 734 mmHg 95%
    01:00 +7°C° 0.2 mm 4 mps 734 mmHg 93%
    02:00 +7°C° 0.2 mm 5 mps 733 mmHg 91%
    03:00 +6°C° 0.1 mm 5 mps 733 mmHg 89%
    04:00 +4°C° 0.1 mm 6 mps 733 mmHg 88%
    05:00 +3°C° 0.1 mm 6 mps 733 mmHg 86%
    06:00 +3°C° 0.2 mm 7 mps 734 mmHg 87%
    07:00 +2°C° 0.2 mm 7 mps 735 mmHg 88%
    08:00 0°C° 0.2 mm 8 mps 736 mmHg 89%
    09:00 +1°C° 0.1 mm 8 mps 736 mmHg 83%
    10:00 +1°C° 0.1 mm 8 mps 737 mmHg 78%
    11:00 +2°C° 0.1 mm 8 mps 738 mmHg 72%
    12:00 +4°C° 0 mm 8 mps 739 mmHg 66%
    13:00 +4°C° 0 mm 8 mps 740 mmHg 60%
    14:00 +5°C° 0 mm 8 mps 741 mmHg 54%
    15:00 +4°C° 0 mm 8 mps 742 mmHg 58%
    16:00 +3°C° 0 mm 7 mps 742 mmHg 62%
    17:00 +2°C° 0 mm 6 mps 743 mmHg 67%
    18:00 +2°C° 0 mm 6 mps 744 mmHg 70%
    19:00 +2°C° 0 mm 5 mps 744 mmHg 73%
    20:00 +1°C° 0 mm 5 mps 745 mmHg 76%
    21:00 +1°C° 0 mm 4 mps 745 mmHg 80%
    22:00 0°C° 0 mm 4 mps 746 mmHg 84%
    23:00 +1°C° 0 mm 3 mps 746 mmHg 88%

    23 September, Monday

    Time Temperature Precipitation Wind Pressure Humidity
    00:00 0°C° 0 mm 3 mps 746 mmHg 90%
    01:00 0°C° 0 mm 3 mps 747 mmHg 92%
    02:00 -1°C° 0 mm 3 mps 747 mmHg 94%
    03:00 -1°C° 0 mm 3 mps 747 mmHg 94%
    04:00 -1°C° 0 mm 3 mps 748 mmHg 93%
    05:00 -1°C° 0 mm 3 mps 748 mmHg 92%
    06:00 0°C° 0 mm 3 mps 748 mmHg 86%
    07:00 +1°C° 0 mm 3 mps 748 mmHg 80%
    08:00 +2°C° 0 mm 3 mps 748 mmHg 74%
    09:00 +3°C° 0 mm 3 mps 748 mmHg 68%
    10:00 +5°C° 0 mm 3 mps 749 mmHg 62%
    11:00 +7°C° 0 mm 3 mps 749 mmHg 56%
    12:00 +7°C° 0 mm 3 mps 748 mmHg 54%
    13:00 +8°C° 0 mm 3 mps 748 mmHg 53%
    14:00 +8°C° 0 mm 3 mps 748 mmHg 52%
    15:00 +7°C° 0 mm 3 mps 747 mmHg 57%
    16:00 +6°C° 0 mm 2 mps 747 mmHg 62%
    17:00 +5°C° 0 mm 2 mps 747 mmHg 67%
    18:00 +4°C° 0 mm 2 mps 747 mmHg 72%
    19:00 +3°C° 0 mm 2 mps 747 mmHg 77%
    20:00 +2°C° 0 mm 2 mps 747 mmHg 82%
    21:00 +1°C° 0 mm 2 mps 747 mmHg 84%
    22:00 +1°C° 0 mm 2 mps 747 mmHg 86%
    23:00 +1°C° 0 mm 2 mps 747 mmHg 88%

    24 September, Tuesday

    Time Temperature Precipitation Wind Pressure Humidity
    00:00 +1°C° 0 mm 1 mps 747 mmHg 90%
    01:00 +1°C° 0 mm 1 mps 747 mmHg 92%
    02:00 +1°C° 0 mm 1 mps 747 mmHg 94%
    03:00 0°C° 0 mm 1 mps 747 mmHg 94%
    04:00 0°C° 0 mm 1 mps 746 mmHg 94%
    05:00 -1°C° 0 mm 0 mps 746 mmHg 94%
    06:00 +1°C° 0 mm 0 mps 746 mmHg 87%
    07:00 +2°C° 0 mm 0 mps 746 mmHg 80%
    08:00 +4°C° 0 mm 0 mps 746 mmHg 73%
    09:00 +5°C° 0 mm 0 mps 746 mmHg 66%
    10:00 +8°C° 0 mm 1 mps 746 mmHg 60%
    11:00 +9°C° 0 mm 1 mps 746 mmHg 53%
    12:00 +9°C° 0 mm 1 mps 746 mmHg 53%
    13:00 +9°C° 0 mm 1 mps 745 mmHg 53%
    14:00 +8°C° 0 mm 2 mps 745 mmHg 52%
    15:00 +7°C° 0 mm 2 mps 745 mmHg 56%
    16:00 +7°C° 0 mm 2 mps 745 mmHg 60%
    17:00 +6°C° 0 mm 2 mps 745 mmHg 63%
    18:00 +5°C° 0 mm 2 mps 745 mmHg 66%
    19:00 +5°C° 0 mm 2 mps 745 mmHg 69%
    20:00 +4°C° 0 mm 2 mps 745 mmHg 72%
    21:00 +4°C° 0 mm 2 mps 745 mmHg 74%
    22:00 +3°C° 0 mm 2 mps 744 mmHg 76%
    23:00 +3°C° 0 mm 2 mps 744 mmHg 77%
    Show more